[[{"header":{"parameterUnit":"m.s-1","parameterCategory":1,"la1":30.2991,"la2":30.254,"lo1":-89.0895,"lo2":-89.0444,"dy":0.0017,"dx":0.0017,"nx":28,"ny":28,"refTime":"2025-08-29T09:00:00:Z","depth":0,"parameterNumber":2,"parameterNumberName":"U-component_of_WINDS"},"data":[0,0,0,0,0,0,0,0,0,0,0,0,0,0,0,0,0,0,0,0,0,0,0,0,0,0,0,0,0,0,0,0,0,0,0,0,0,0,0,0,0,0,0,0,0,0,0,0,0,0,0,0,0,0,0,0,0,0,-1.8426,-1.843,0,-1.881,-1.8814,-1.8818,-1.9131,-1.9134,-1.9137,-1.914,-1.9531,-1.9538,-1.9546,0,0,0,0,0,0,0,0,0,0,0,0,0,-1.7964,-1.7971,-1.8426,-1.8431,-1.8435,-1.8809,-1.8814,-1.882,-1.913,-1.9134,-1.9138,-1.9142,-1.9529,-1.9537,-1.9546,0,0,0,0,0,0,0,0,0,0,0,0,0,-1.8237,-1.7973,-1.8425,-1.8635,-1.8658,-1.8808,-1.8814,-1.8821,-1.9129,-1.9134,-1.9139,-1.9143,-1.9526,-1.9537,-1.9547,-1.9519,0,0,-1.9581,-1.9586,0,0,0,0,0,0,0,0,-1.8222,-1.8254,-1.86,-1.8621,-1.8647,-1.8927,-1.8795,-1.9055,-1.9128,-1.895,-1.914,-1.9146,-1.9326,-1.9354,-1.9415,-1.9537,-1.9554,-1.9582,-1.9589,-1.9594,-1.9597,0,0,0,0,0,0,0,-1.8202,-1.8239,-1.8578,-1.8604,-1.8633,-1.8711,-1.8756,-1.8846,-1.9106,-1.8966,-1.899,-1.9031,-1.934,-1.9404,-1.9427,-1.956,-1.9582,-1.9592,-1.9599,-1.9603,-1.9681,-1.9676,0,0,0,0,0,0,-1.8151,-1.8221,-1.8566,-1.8589,-1.8442,-1.8716,-1.8765,-1.8832,-1.9106,-1.9153,-1.9026,-1.9044,-1.9382,-1.9413,-1.9442,-1.9426,-1.9594,-1.9604,-1.9611,-1.9685,-1.968,-1.9675,0,0,0,0,0,0,-1.814,-1.8178,-1.855,-1.8412,-1.8465,-1.8719,-1.8791,-1.8837,-1.8901,-1.9152,-1.92,-1.9043,-1.9387,-1.9426,-1.9498,-1.9444,-1.9609,-1.9619,-1.9691,-1.9683,-1.9677,-1.9393,0,0,0,0,0,0,-1.8125,-1.8172,-1.8163,-1.841,-1.8471,-1.8598,-1.8788,-1.8841,-1.892,-1.8947,-1.918,-1.9224,-1.9394,-1.948,-1.9509,-1.9462,-1.9628,-1.9696,-1.9687,-1.9679,-1.9409,-1.9378,-1.9351,0,0,0,0,0,-1.8107,-1.8067,-1.8161,-1.8201,-1.8465,-1.8594,-1.863,-1.8827,-1.8914,-1.8907,-1.9069,-1.9216,-1.9446,-1.9484,-1.952,-1.9475,-1.9701,-1.969,-1.968,-1.9421,-1.9384,-1.9352,0,0,0,0,0,0,-1.7806,-1.8103,-1.821,-1.8249,-1.8394,-1.8647,-1.8643,-1.8781,-1.8904,-1.8923,-1.9164,-1.9214,-1.9259,-1.9377,-1.9413,-1.9464,-1.9593,-1.9589,-1.9384,-1.9351,-1.9322,-1.9291,-1.9637,0,0,0,0,0,-1.7744,-1.7824,-1.8081,-1.809,-1.8157,-1.8387,-1.8451,-1.8591,-1.8751,-1.8814,-1.8981,-1.913,-1.9237,-1.9302,-1.9414,-1.943,-1.9485,-1.9418,-1.9389,-1.9364,-1.9356,-1.9374,-1.9347,-1.9641,-1.9641,-1.9641,0,0,-1.7617,-1.7789,-1.7825,-1.8033,-1.8163,-1.824,-1.8436,-1.851,-1.857,-1.8825,-1.8902,-1.9031,-1.9214,-1.9257,-1.9285,-1.9356,-1.9288,-1.9351,-1.9329,-1.9335,-1.936,-1.9332,-1.9307,-1.9634,-1.9635,-1.9636,0,0,-1.7423,-1.7562,-1.7586,-1.7712,-1.7906,-1.806,-1.8065,-1.8299,-1.8394,-1.8476,-1.867,-1.8746,-1.8924,-1.9047,-1.9133,-1.8991,-1.9131,-1.9022,-1.8869,-1.8884,-1.8861,-1.8841,-1.8789,-1.8767,-1.9014,-1.9014,-1.9013,0,-1.7239,-1.7364,-1.758,-1.7642,-1.7728,-1.7966,-1.7991,-1.8104,-1.8323,-1.8377,-1.8455,-1.8686,-1.8826,-1.8902,-1.8867,-1.893,-1.8944,-1.8993,-1.8847,-1.8829,-1.8814,-1.8767,-1.8747,-1.8999,-1.9001,-1.9002,-1.9004,0,-1.7128,-1.7211,-1.7207,-1.7414,-1.7501,-1.7544,-1.7767,-1.783,-1.7964,-1.811,-1.8192,-1.837,-1.8522,-1.8553,-1.8684,-1.8648,-1.8686,-1.8802,-1.8935,-1.8768,-1.8727,-1.8711,-1.8978,-1.8983,-1.8987,-1.8991,0,0,-1.6748,-1.7078,-1.7072,-1.717,-1.7404,-1.7473,-1.7529,-1.7679,-1.7727,-1.7873,-1.7925,-1.8073,-1.8183,-1.828,-1.8429,-1.8442,-1.8317,-1.8558,-1.8566,-1.8503,-1.8287,-1.8194,-1.817,-1.8414,-1.8412,-1.841,-1.8271,0,-1.6589,-1.6701,-1.6899,-1.6947,-1.7027,-1.7257,-1.7306,-1.7455,-1.7595,-1.7684,-1.784,-1.794,-1.8079,-1.8139,-1.8163,-1.8326,-1.8276,-1.834,-1.8463,-1.8465,-1.8404,-1.8149,-1.8051,-1.7911,-1.8257,-1.8254,-1.8253,0,-1.6416,-1.6549,-1.6604,-1.6835,-1.6876,-1.6916,-1.7071,-1.7154,-1.7329,-1.7431,-1.754,-1.7704,-1.7777,-1.7902,-1.8005,-1.8044,-1.8108,-1.8196,-1.8196,-1.8211,-1.8343,-1.8153,-1.7872,-1.7848,-1.823,-1.8232,-1.8234,0,-1.6129,-1.6323,-1.6382,-1.6459,-1.673,-1.6752,-1.6867,-1.7047,-1.7126,-1.7263,-1.7316,-1.7459,-1.7535,-1.7643,-1.7842,-1.7915,-1.7922,-1.8065,-1.8007,-1.8001,-1.7992,-1.7989,-1.7712,-1.804,-1.8041,-1.8041,-1.8041,0,-1.5928,-1.5952,-1.6257,-1.6291,-1.6326,-1.6557,-1.6585,-1.6721,-1.688,-1.6947,-1.7157,-1.7215,-1.7476,-1.7565,-1.7722,-1.7782,-1.7817,-1.79,-1.794,-1.7878,-1.7866,-1.7918,-1.7931,-1.8036,-1.8037,-1.8038,-1.8039,0,-1.561,-1.5816,-1.5894,-1.6146,-1.6211,-1.6224,-1.6441,-1.6485,-1.664,-1.6721,-1.6754,-1.6996,-1.7112,-1.7323,-1.7498,-1.7604,-1.7631,-1.7704,-1.757,-1.7594,-1.7523,-1.7525,-1.7266,-1.7243,-1.7587,-1.7584,-1.7581,0,-1.5465,-1.5489,-1.5745,-1.5804,-1.5911,-1.6004,-1.6087,-1.6316,-1.6393,-1.6597,-1.6615,-1.6749,-1.6866,-1.7041,-1.7233,-1.737,-1.7445,-1.7345,-1.7466,-1.7403,-1.7439,-1.7433,-1.7436,-1.7314,-1.7309,-1.7306,-1.7302,0,-1.5185,-1.5286,-1.5396,-1.5542,-1.5634,-1.576,-1.5896,-1.5934,-1.6195,-1.6271,-1.6393,-1.6484,-1.6665,-1.6794,-1.6959,-1.7079,-1.7232,-1.7264,-1.7257,-1.7191,-1.7111,-1.715,-1.749,-1.7267,-1.7271,-1.7273,-1.7275,-1.7277,-1.4948,-1.498,-1.5165,-1.5281,-1.5409,-1.5532,-1.5586,-1.5749,-1.5854,-1.6018,-1.615,-1.626,-1.644,-1.6677,-1.6788,-1.6879,-1.6951,-1.6942,-1.6939,-1.6932,-1.6905,-1.7101,-1.6911,-1.6912,-1.6913,-1.6915,-1.6915,0,-1.4675,-1.4807,-1.4912,-1.5097,-1.5188,-1.533,-1.549,-1.5556,-1.5651,-1.5806,-1.5918,-1.6058,-1.6186,-1.639,-1.6534,-1.6568,-1.6642,-1.6598,-1.6595,-1.662,-1.6834,-1.6824,-1.6535,-1.6535,-1.6535,-1.6535,-1.6535,-1.6535,-1.4544,-1.4605,-1.4729,-1.4858,-1.4991,-1.5101,-1.518,-1.5296,-1.542,-1.5567,-1.5674,-1.5807,-1.5983,-1.6142,-1.6266,-1.6323,-1.6365,-1.6296,-1.6374,-1.6569,-1.6605,-1.6638,-1.6629,-1.6304,-1.6304,-1.6153,-1.6151,-1.615]},{"header":{"parameterUnit":"m.s-1","parameterCategory":1,"la1":30.2991,"la2":30.254,"lo1":-89.0895,"lo2":-89.0444,"dy":0.0017,"dx":0.0017,"nx":28,"ny":28,"refTime":"2025-08-29T09:00:00:Z","depth":0,"parameterNumber":3,"parameterNumberName":"V-component_of_WINDS"},"data":[0,0,0,0,0,0,0,0,0,0,0,0,0,0,0,0,0,0,0,0,0,0,0,0,0,0,0,0,0,0,0,0,0,0,0,0,0,0,0,0,0,0,0,0,0,0,0,0,0,0,0,0,0,0,0,0,0,0,-0.4229,-0.4229,0,-0.4234,-0.4234,-0.4235,-0.4315,-0.4317,-0.4319,-0.4321,-0.4322,-0.432,-0.4319,0,0,0,0,0,0,0,0,0,0,0,0,0,-0.4287,-0.4286,-0.4229,-0.4229,-0.423,-0.4234,-0.4234,-0.4235,-0.4314,-0.4317,-0.4319,-0.4321,-0.4323,-0.4321,-0.4318,0,0,0,0,0,0,0,0,0,0,0,0,0,-0.4274,-0.4285,-0.4229,-0.427,-0.4274,-0.4234,-0.4234,-0.4235,-0.4314,-0.4317,-0.432,-0.4323,-0.4324,-0.4321,-0.4318,-0.4239,0,0,-0.431,-0.4308,0,0,0,0,0,0,0,0,-0.4275,-0.4272,-0.4264,-0.4267,-0.4271,-0.4277,-0.4256,-0.4236,-0.4313,-0.4298,-0.4321,-0.4324,-0.4305,-0.4303,-0.4298,-0.4239,-0.424,-0.4309,-0.4308,-0.4306,-0.4306,0,0,0,0,0,0,0,-0.4276,-0.4272,-0.4231,-0.4264,-0.4268,-0.4287,-0.4289,-0.4252,-0.4284,-0.43,-0.4306,-0.4305,-0.4307,-0.43,-0.4298,-0.424,-0.4309,-0.4307,-0.4305,-0.4304,-0.4118,-0.4114,0,0,0,0,0,0,-0.4271,-0.4272,-0.4231,-0.4231,-0.4281,-0.4284,-0.4286,-0.4272,-0.4285,-0.429,-0.4303,-0.4309,-0.4303,-0.4301,-0.4299,-0.4206,-0.4306,-0.4304,-0.4302,-0.4121,-0.4117,-0.4113,0,0,0,0,0,0,-0.4272,-0.4267,-0.4231,-0.4254,-0.4251,-0.428,-0.4264,-0.427,-0.4263,-0.4287,-0.4293,-0.429,-0.4306,-0.4302,-0.4254,-0.4207,-0.4303,-0.43,-0.4125,-0.412,-0.4115,-0.4021,0,0,0,0,0,0,-0.4274,-0.4267,-0.4237,-0.4252,-0.4249,-0.4186,-0.4261,-0.4268,-0.4259,-0.4267,-0.4276,-0.4281,-0.4308,-0.4258,-0.4251,-0.4205,-0.4298,-0.4129,-0.4122,-0.4117,-0.4028,-0.4013,-0.4001,0,0,0,0,0,-0.4275,-0.4209,-0.4235,-0.423,-0.4213,-0.4183,-0.4181,-0.4215,-0.4255,-0.4225,-0.4241,-0.428,-0.4215,-0.4252,-0.4245,-0.4198,-0.4132,-0.4124,-0.4117,-0.4034,-0.4016,-0.4001,0,0,0,0,0,0,-0.4186,-0.4212,-0.4241,-0.4178,-0.4178,-0.4197,-0.416,-0.4194,-0.4182,-0.419,-0.4232,-0.4233,-0.4177,-0.4184,-0.4225,-0.4123,-0.418,-0.4171,-0.412,-0.4103,-0.4089,-0.4087,-0.4296,0,0,0,0,0,-0.4159,-0.4134,-0.4158,-0.41,-0.4099,-0.4129,-0.4118,-0.4144,-0.4145,-0.4145,-0.4157,-0.4156,-0.4135,-0.412,-0.4102,-0.4031,-0.4033,-0.3996,-0.3982,-0.3971,-0.3961,-0.3923,-0.3906,-0.4089,-0.4089,-0.4089,0,0,-0.4103,-0.4114,-0.4095,-0.4083,-0.4086,-0.4057,-0.4129,-0.4096,-0.4075,-0.414,-0.4094,-0.4103,-0.4105,-0.4044,-0.4018,-0.4048,-0.3912,-0.3961,-0.3952,-0.3948,-0.3913,-0.3896,-0.3881,-0.4084,-0.4085,-0.4086,0,0,-0.3985,-0.3992,-0.3944,-0.3947,-0.3951,-0.3973,-0.3961,-0.3976,-0.3984,-0.394,-0.3988,-0.3965,-0.3928,-0.3927,-0.3922,-0.3808,-0.3843,-0.3801,-0.3727,-0.369,-0.3675,-0.3662,-0.3619,-0.3603,-0.3792,-0.3792,-0.3792,0,-0.3913,-0.3873,-0.3915,-0.3879,-0.3872,-0.3933,-0.3884,-0.3885,-0.3882,-0.3876,-0.391,-0.3866,-0.3871,-0.3811,-0.3783,-0.3778,-0.3765,-0.3797,-0.3674,-0.3662,-0.3651,-0.361,-0.3594,-0.3787,-0.3787,-0.3788,-0.3788,0,-0.3785,-0.3757,-0.3718,-0.3716,-0.3705,-0.3663,-0.3698,-0.3682,-0.3711,-0.3728,-0.3682,-0.3692,-0.3677,-0.3666,-0.3692,-0.3609,-0.3627,-0.3667,-0.3725,-0.3627,-0.3589,-0.3574,-0.3779,-0.3781,-0.3782,-0.3784,0,0,-0.3605,-0.363,-0.3614,-0.3614,-0.3626,-0.3604,-0.3566,-0.3553,-0.3538,-0.3536,-0.3503,-0.3473,-0.351,-0.3504,-0.3533,-0.35,-0.3407,-0.3545,-0.3545,-0.3516,-0.3314,-0.328,-0.3261,-0.3433,-0.343,-0.3428,-0.3312,0,-0.3489,-0.3425,-0.3462,-0.3392,-0.3366,-0.3426,-0.3392,-0.3395,-0.3412,-0.3392,-0.3411,-0.3387,-0.344,-0.3436,-0.3408,-0.3424,-0.3366,-0.3434,-0.34,-0.3399,-0.3394,-0.3242,-0.3207,-0.3096,-0.3298,-0.3296,-0.3294,0,-0.3344,-0.3337,-0.3264,-0.3282,-0.3272,-0.3241,-0.3233,-0.3214,-0.3219,-0.3234,-0.3229,-0.3265,-0.3229,-0.329,-0.3239,-0.3284,-0.3273,-0.328,-0.3276,-0.3271,-0.3337,-0.3229,-0.3063,-0.3044,-0.3272,-0.3273,-0.3275,0,-0.3216,-0.3189,-0.3142,-0.3141,-0.3161,-0.3138,-0.3145,-0.3154,-0.3144,-0.3137,-0.3131,-0.312,-0.3112,-0.3102,-0.3135,-0.3177,-0.3079,-0.3143,-0.3087,-0.3086,-0.306,-0.306,-0.2885,-0.306,-0.306,-0.306,-0.3061,0,-0.308,-0.3032,-0.3085,-0.3055,-0.3004,-0.305,-0.2997,-0.3011,-0.3019,-0.2992,-0.3045,-0.3018,-0.3065,-0.3044,-0.307,-0.3022,-0.302,-0.3029,-0.3035,-0.3021,-0.302,-0.3011,-0.3018,-0.3056,-0.3057,-0.3058,-0.3059,0,-0.2926,-0.296,-0.2913,-0.2937,-0.2942,-0.2903,-0.2924,-0.2897,-0.2919,-0.2885,-0.288,-0.2914,-0.2891,-0.2925,-0.2906,-0.2924,-0.2857,-0.2877,-0.2855,-0.2859,-0.28,-0.2804,-0.2611,-0.2586,-0.278,-0.2778,-0.2777,0,-0.2834,-0.28,-0.2821,-0.2808,-0.2813,-0.2791,-0.2782,-0.2827,-0.2815,-0.282,-0.2792,-0.2775,-0.2763,-0.2725,-0.2747,-0.2733,-0.2751,-0.2685,-0.2749,-0.2736,-0.2746,-0.2746,-0.2741,-0.2669,-0.2667,-0.2665,-0.2664,0,-0.2667,-0.2687,-0.2673,-0.2664,-0.2653,-0.2648,-0.2647,-0.2633,-0.2681,-0.2665,-0.2644,-0.2635,-0.2617,-0.2598,-0.2591,-0.2598,-0.2637,-0.2644,-0.263,-0.2613,-0.26,-0.2603,-0.2814,-0.2647,-0.2649,-0.265,-0.2651,-0.2652,-0.254,-0.2511,-0.2523,-0.2505,-0.251,-0.2509,-0.2485,-0.2505,-0.2489,-0.2478,-0.2507,-0.2478,-0.2486,-0.248,-0.2483,-0.2461,-0.249,-0.247,-0.2464,-0.2458,-0.2447,-0.2608,-0.2461,-0.2461,-0.2462,-0.2462,-0.2463,0,-0.2372,-0.2384,-0.2368,-0.2366,-0.2352,-0.2395,-0.2397,-0.2382,-0.2357,-0.2362,-0.235,-0.2326,-0.2309,-0.2332,-0.2319,-0.2297,-0.2314,-0.2291,-0.2291,-0.2291,-0.2424,-0.2435,-0.2277,-0.2277,-0.2277,-0.2277,-0.2277,-0.2277,-0.2283,-0.2237,-0.2259,-0.2216,-0.2228,-0.2201,-0.2199,-0.2197,-0.2202,-0.2173,-0.216,-0.2176,-0.2187,-0.2176,-0.2162,-0.2169,-0.216,-0.213,-0.2142,-0.2264,-0.2282,-0.2299,-0.2311,-0.2128,-0.2128,-0.2012,-0.2011,-0.201]}]]